Tracking 29892 objects as of 21-Nov-2024
HD Live streaming from Space Station
objects crossing your sky now

CHECKMATE 2

Track CHECKMATE 2 now!
10-day predictions


NORAD ID: 56167
Int'l Code: 2023-050F
Perigee: 947.5 km
Apogee: 959.2 km
Inclination: 81.0 °
Period: 104.0 minutes
Semi major axis: 7324 km
RCS: Unknown
Launch date: April 2, 2023
Source: United States (US)
Launch site: AIR FORCE WESTERN TEST RANGE (AFWTR)
Your satellite tracking list
Your tracking list is empty




NASA's NSSDC Master Catalog

Two Line Element Set (TLE):
1 56167U 23050F   24325.21367330  .00000231  00000-0  19430-3 0  9992
2 56167  81.0042 262.1286 0007999  63.3443 296.8531 13.84995929 82650
Source of the keplerian elements: AFSPC